Weather History for KHSE - February, 2014

Change the Weather History Date:

Tuesday, February 4, 2014

  Actual Average Record
Temperature  
Mean Temperature 50 °F 46 °F  
Max Temperature 58 °F 53 °F 71 °F (1990)
Min Temperature 41 °F 39 °F 15 °F (1981)
Degree Days  
Heating Degree Days 15 19  
Month to date heating degree days 54 76  
Since 1 July heating degree days 1399 1489  
Cooling Degree Days 0 0  
Month to date cooling degree days 0 0  
Year to date cooling degree days 0 0  
Moisture  
Dew Point 45 °F    
Average Humidity 95    
Maximum Humidity 100    
Minimum Humidity 89    
Precipitation  
Precipitation T in 0.15 in 2.39 in (1998)
Month to date precipitation 0.03 0.61  
Year to date precipitation 5.37 5.85  
Snow  
Snow 0.00 in - - ()
Month to date snowfall 0.0  
Since 1 July snowfall T  
Snow Depth 0.00 in    
Sea Level Pressure  
Sea Level Pressure 30.23 in    
Wind  
Wind Speed 11 mph (NE)    
Max Wind Speed 16 mph    
Max Gust Speed 27 mph    
Visibility 7 miles    
Events Rain    
T = Trace of Precipitation, MM = Missing Value Source: NWS Daily Summary

Daily Weather History Graph

Daily Weather History Graph

Search for Another Location

Airport or City:

Trip Planner

Search our weather history database for the weather conditions in past years. The results will help you decide how hot, cold, wet, or windy it might be!

Date:

Astronomy

Feb. 04, 2014 Rise Set
Actual Time 6:59 AM EST 5:33 PM EST
Civil Twilight 6:32 AM EST 6:00 PM EST
Nautical Twilight 6:02 AM EST 6:30 PM EST
Astronomical Twilight 5:32 AM EST 7:00 PM EST
Moon 9:49 AM EST (2/4) 11:10 PM EST (2/4)
Length of Visible Light 11h 27m
Length of Day
10h 34m
Waxing Crescent, 29% of the Moon is Illuminated
Feb 4
Waxing Crescent
Feb 6
First Quarter
Feb 14
Full
Feb 22
Last Quarter
Mar 1
New

Hourly Weather History & Observations

Time (EST) Temp. Windchill Dew Point Humidity Pressure Visibility Wind Dir Wind Speed Gust Speed Precip Events Conditions
12:51 AM 41.0 °F 34.3 °F 39.9 °F 96% 30.23 in 10.0 mi NNE 11.5 mph 24.2 mph N/A   Overcast
1:51 AM 41.0 °F 34.7 °F 39.9 °F 96% 30.24 in 10.0 mi NNE 10.4 mph 19.6 mph N/A   Overcast
2:51 AM 41.0 °F 35.2 °F 39.9 °F 96% 30.25 in 10.0 mi NNE 9.2 mph 21.9 mph N/A   Overcast
3:51 AM 41.0 °F 34.7 °F 41.0 °F 100% 30.27 in 6.0 mi NNE 10.4 mph 17.3 mph N/A   Overcast
4:01 AM 41.0 °F 34.3 °F 41.0 °F 100% 30.27 in 7.0 mi North 11.5 mph 23.0 mph N/A   Overcast
4:11 AM 41.0 °F 34.3 °F 41.0 °F 100% 30.27 in 7.0 mi NNE 11.5 mph 20.7 mph N/A   Overcast
4:51 AM 41.0 °F 36.4 °F 41.0 °F 100% 30.27 in 7.0 mi Variable 6.9 mph 17.3 mph N/A   Overcast
5:51 AM 42.1 °F 36.6 °F 41.0 °F 96% 30.28 in 7.0 mi NNE 9.2 mph 17.3 mph N/A   Overcast
6:51 AM 42.1 °F 36.6 °F 41.0 °F 96% 30.29 in 7.0 mi NNE 9.2 mph - N/A   Overcast
7:09 AM 42.1 °F 36.1 °F 42.1 °F 100% 30.30 in 7.0 mi NNE 10.4 mph 16.1 mph N/A   Overcast
7:34 AM 42.1 °F 36.6 °F 42.1 °F 100% 30.31 in 6.0 mi NNE 9.2 mph 17.3 mph N/A   Overcast
7:51 AM 42.1 °F 36.6 °F 41.0 °F 96% 30.31 in 6.0 mi NNE 9.2 mph 18.4 mph N/A   Overcast
8:51 AM 43.0 °F 36.8 °F 42.1 °F 97% 30.33 in 6.0 mi North 11.5 mph 18.4 mph N/A   Overcast
9:51 AM 43.0 °F 36.8 °F 41.0 °F 93% 30.34 in 7.0 mi North 11.5 mph 21.9 mph N/A   Overcast
10:51 AM 43.0 °F 36.0 °F 41.0 °F 93% 30.34 in 8.0 mi NNE 13.8 mph 21.9 mph N/A   Overcast
11:51 AM 44.1 °F 38.1 °F 41.0 °F 89% 30.32 in 7.0 mi NNE 11.5 mph 20.7 mph N/A   Overcast
12:51 PM 45.0 °F 38.2 °F 42.1 °F 90% 30.28 in 7.0 mi NNE 15.0 mph 24.2 mph N/A   Overcast
1:51 PM 43.0 °F 36.0 °F 41.0 °F 93% 30.26 in 6.0 mi NNE 13.8 mph 24.2 mph N/A   Overcast
2:51 PM 43.0 °F 36.8 °F 42.1 °F 97% 30.25 in 5.0 mi NNE 11.5 mph 21.9 mph N/A   Overcast
3:51 PM 44.1 °F 38.6 °F 43.0 °F 96% 30.24 in 6.0 mi NNE 10.4 mph 20.7 mph N/A   Overcast
4:25 PM 45.0 °F 38.9 °F 43.0 °F 93% 30.23 in 6.0 mi NNE 12.7 mph 20.7 mph N/A   Overcast
4:51 PM 45.0 °F 39.7 °F 44.1 °F 97% 30.23 in 6.0 mi NNE 10.4 mph 18.4 mph N/A   Overcast
5:51 PM 45.0 °F 40.1 °F 44.1 °F 97% 30.23 in 7.0 mi North 9.2 mph 18.4 mph N/A   Overcast
6:47 PM 44.6 °F 39.2 °F 44.6 °F 100% 30.22 in 6.0 mi NNE 10.4 mph 18.4 mph 0.00 in   Overcast
6:51 PM 44.1 °F 37.7 °F 43.0 °F 96% 30.22 in 6.0 mi NNE 12.7 mph 18.4 mph 0.00 in   Overcast
7:51 PM 45.0 °F 38.9 °F 45.0 °F 100% 30.19 in 5.0 mi NNE 12.7 mph 17.3 mph 0.00 in   Overcast
8:51 PM 50.0 °F - 50.0 °F 100% 30.15 in 7.0 mi ENE 8.1 mph - N/A   Overcast
9:19 PM 51.1 °F - 51.1 °F 100% 30.15 in 8.0 mi ENE 4.6 mph - N/A   Mostly Cloudy
9:30 PM 53.1 °F - 53.1 °F 100% 30.15 in 9.0 mi East 4.6 mph - N/A   Overcast
9:51 PM 54.0 °F - 54.0 °F 100% 30.14 in 10.0 mi East 5.8 mph - N/A   Overcast
10:34 PM 55.9 °F - 55.0 °F 97% 30.11 in 8.0 mi SSE 11.5 mph - N/A   Overcast
10:51 PM 55.9 °F - 55.9 °F 100% 30.10 in 8.0 mi SSE 13.8 mph - N/A   Overcast
11:40 PM 57.9 °F - 57.0 °F 97% 30.07 in 5.0 mi SE 15.0 mph - 0.00 in Rain Light Rain
11:51 PM 57.0 °F - 57.0 °F 100% 30.07 in 4.0 mi SE 12.7 mph - 0.00 in   Overcast